Погода в Крещенке

Россия / Липецкая область     52°03′25″N   39°00′55″E
темп.,
°C
ветер,
м/с
пор.,
м/с
влажн.,
%
обл.,
%
осадки,
мм/ч
давл.,
гПа
погр.,
м
9 мая, вс
вс900:00+10ююз3697100 1.7 1005271
03:00+6з71194100 4.4 1007498
06:00+5з6994100 0.3 1008641
09:00+5зсз71196100 0.3 1010671
12:00+5сз71289100 0.1 1013934
15:00+8ссз8127391 0.2 10151331
18:00+8ссз7127692 0.2 10171242
21:00+5сз5137899 0.3 1020536
10 мая, пн
пн1000:00+4сз6138464 0.0 1020404
03:00+4сз6148975 0.0 1021433
06:00+4ссз615849 0.0 1022556
09:00+9с1017628 0.0 10221423
12:00+10с10155967 0.0 10211227
15:00+9с91565100 0.0 10211024
18:00+8ссв91681100 0.3 1021901
21:00+8ссв91990100 1.7 1020586
11 мая, вт
вт1100:00+9ссв102088100 0.3 1019610
03:00+9ссв91691100 0.8 1019497
06:00+9ссв81792100 0.4 1019563
09:00+11всв71491100 1.0 1020851
12:00+13в7107236 0.9 10221170
15:00+15в8115410 0.9 10221904
18:00+13юв58685 0.0 10241069
21:00+10в3480100 0.1 1024101
12 мая, ср
ср1200:00+9в348893 0.0 102471
03:00+8в2395100 0.1 102361
06:00+8всв37945 0.0 1023195
09:00+13в687010 0.0 1022804
12:00+16вюв685466 0.0 10211746
15:00+17вюв685598 0.0 10201598
18:00+16юв58626 0.0 1020597
21:00+12вюв36727 0.0 102087
13 мая, чт
чт1300:00+10вюв37865 0.0 1020118
03:00+10юв34925 0.0 102061
06:00+11юв24890 0.0 1020107
09:00+16вюв34710 0.0 1019569
12:00+20ююв34515 0.0 10181379
15:00+21ююв344751 0.0 10171670
18:00+21ююв246397 0.0 1017171
21:00+15вюв3484100 0.0 101765